Location: Brachbach
(49.1847°N, 9.7240°E)
Time: 05:49:34
(UTC+00:00)

PCSat - Pass Details

Date: 15 March 2026
Orbit: 780 x 790 km, 67.1° (Epoch: 13 April)

Event Time Altitude Azimuth Distance (km) Brightness Sun altitude
Exits shadow 23:59:17 16° 6° (N) 1,976 12.2 -42.2°
Drops below altitude 10° 00:00:49 10° 19° (NNE) 2,364 12.6 -42.2°
Sets 00:03:46 0° 35° (NE) 3,297 13.5 -42.1°
